Weather History for Port Angeles, WA

Change the Weather History Date:

Sunday, April 7, 2013

  Actual Average Record
Temperature  
Mean Temperature 45 °F -  
Max Temperature 52 °F 53 °F 63 °F (1986)
Min Temperature 39 °F 37 °F 26 °F (1988)
Degree Days  
Heating Degree Days 20    
Moisture  
Dew Point 40 °F    
Average Humidity 83    
Maximum Humidity 93    
Minimum Humidity 61    
Precipitation  
Precipitation 0.51 in - - ()
Sea Level Pressure  
Sea Level Pressure 29.69 in    
Wind  
Wind Speed 7 mph (WSW)    
Max Wind Speed 15 mph    
Max Gust Speed 22 mph    
Visibility 10 miles    
Events Rain    
Averages and records for this station are not official NWS values.
T = Trace of Precipitation, MM = Missing Value Source: NWS Daily Summary

Daily Weather History Graph

Daily Weather History Graph

Search for Another Location

Airport:

Trip Planner

Search our weather history database for the weather conditions in past years. The results will help you decide how hot, cold, wet, or windy it might be!

Date:

Astronomy

Apr. 07, 2013 Rise Set
Actual Time 6:39 AM PDT 7:53 PM PDT
Civil Twilight 6:07 AM PDT 8:25 PM PDT
Nautical Twilight 5:28 AM PDT 9:04 PM PDT
Astronomical Twilight 4:47 AM PDT 9:45 PM PDT
Moon 5:11 AM PDT (4/7) 5:22 PM PDT (4/7)
Length of Visible Light 14h 18m
Length of Day
13h 14m
Waning Crescent, 7% of the Moon is Illuminated
Apr 7
Waning Crescent
Apr 10
New
Apr 18
First Quarter
Apr 25
Full
May 2
Last Quarter

Hourly Weather History & Observations

Time (PDT) Temp. Windchill Dew Point Humidity Pressure Visibility Wind Dir Wind Speed Gust Speed Precip Events Conditions
12:49 AM 44.6 °F 43.1 °F 42.8 °F 93% 29.70 in 10.0 mi East 3.5 mph - 0.03 in Rain Light Rain
12:53 AM 45.0 °F - 42.1 °F 90% 29.70 in 10.0 mi Calm Calm - 0.04 in Rain Light Rain
1:53 AM 44.1 °F 41.5 °F 42.1 °F 93% 29.66 in 10.0 mi ESE 4.6 mph - 0.01 in   Overcast
2:27 AM 44.1 °F 40.8 °F 42.1 °F 93% 29.64 in 8.0 mi ESE 5.8 mph - 0.01 in Rain Light Rain
2:39 AM 44.1 °F 40.8 °F 42.1 °F 93% 29.64 in 7.0 mi ESE 5.8 mph - 0.02 in Rain Light Rain
2:53 AM 44.1 °F 42.5 °F 42.1 °F 93% 29.63 in 10.0 mi ESE 3.5 mph - 0.03 in Rain Light Rain
3:08 AM 44.1 °F 42.5 °F 42.1 °F 93% 29.62 in 9.0 mi ENE 3.5 mph - 0.01 in Rain Light Rain
3:43 AM 45.0 °F 40.1 °F 42.1 °F 90% 29.61 in 7.0 mi East 9.2 mph - 0.04 in Rain Light Rain
3:53 AM 44.1 °F 39.5 °F 41.0 °F 89% 29.61 in 8.0 mi East 8.1 mph - 0.05 in Rain Light Rain
4:14 AM 43.0 °F 37.7 °F 39.9 °F 89% 29.60 in 10.0 mi East 9.2 mph - 0.02 in Rain Light Rain
4:41 AM 42.1 °F 36.6 °F 37.0 °F 82% 29.60 in 8.0 mi SE 9.2 mph - 0.07 in Rain Light Rain
4:53 AM 42.1 °F 38.4 °F 39.0 °F 89% 29.60 in 10.0 mi SE 5.8 mph - 0.09 in Rain Light Rain
5:53 AM 41.0 °F 37.1 °F 37.0 °F 86% 29.60 in 10.0 mi SSW 5.8 mph - 0.06 in Rain Light Rain
6:53 AM 39.9 °F 35.1 °F 37.9 °F 93% 29.61 in 8.0 mi WSW 6.9 mph - 0.05 in Rain Light Rain
7:53 AM 41.0 °F 36.4 °F 37.0 °F 86% 29.62 in 7.0 mi WSW 6.9 mph - 0.09 in Rain Light Rain
8:13 AM 41.0 °F 34.7 °F 37.0 °F 86% 29.62 in 10.0 mi WSW 10.4 mph - 0.01 in Rain Light Rain
8:53 AM 42.1 °F 36.6 °F 39.0 °F 89% 29.64 in 9.0 mi SW 9.2 mph - 0.03 in Rain Light Rain
9:03 AM 43.0 °F 37.7 °F 39.0 °F 86% 29.63 in 10.0 mi WSW 9.2 mph - 0.00 in Rain Light Rain
9:42 AM 44.1 °F 38.1 °F 39.0 °F 82% 29.64 in 10.0 mi West 11.5 mph - 0.01 in   Overcast
9:53 AM 44.1 °F 38.1 °F 39.0 °F 82% 29.65 in 10.0 mi WSW 11.5 mph - 0.01 in   Overcast
10:53 AM 45.0 °F 39.7 °F 39.9 °F 82% 29.68 in 10.0 mi WSW 10.4 mph - N/A   Overcast
11:53 AM 46.9 °F - 39.9 °F 77% 29.71 in 10.0 mi West 11.5 mph - 0.00 in Rain Light Rain
12:46 PM 48.0 °F - 41.0 °F 77% 29.70 in 10.0 mi WNW 10.4 mph - 0.00 in   Overcast
12:53 PM 46.9 °F - 41.0 °F 80% 29.71 in 10.0 mi NNW 8.1 mph - 0.00 in   Overcast
1:35 PM 46.9 °F - 42.1 °F 83% 29.71 in 10.0 mi WNW 9.2 mph - 0.03 in Rain Light Rain
1:53 PM 48.9 °F - 43.0 °F 80% 29.73 in 10.0 mi WNW 10.4 mph - 0.03 in   Mostly Cloudy
2:53 PM 50.0 °F - 42.1 °F 74% 29.74 in 10.0 mi WSW 11.5 mph - 0.01 in   Scattered Clouds
3:53 PM 50.0 °F - 39.0 °F 66% 29.75 in 10.0 mi West 15.0 mph 21.9 mph 0.00 in   Mostly Cloudy
4:53 PM 51.1 °F - 37.9 °F 61% 29.76 in 10.0 mi West 11.5 mph 21.9 mph 0.00 in   Clear
5:53 PM 48.9 °F - 39.9 °F 71% 29.78 in 10.0 mi NNW 10.4 mph 17.3 mph N/A   Mostly Cloudy
6:53 PM 48.0 °F - 39.0 °F 71% 29.81 in 10.0 mi WNW 11.5 mph 21.9 mph N/A   Overcast
7:53 PM 46.0 °F 39.6 °F 37.9 °F 73% 29.82 in 10.0 mi West 15.0 mph 20.7 mph 0.00 in Rain Light Rain
8:53 PM 45.0 °F 41.2 °F 37.0 °F 74% 29.83 in 10.0 mi WSW 6.9 mph - 0.00 in   Overcast
9:53 PM 45.0 °F 40.6 °F 37.0 °F 74% 29.86 in 10.0 mi NW 8.1 mph - N/A   Overcast
10:53 PM 45.0 °F 41.2 °F 37.9 °F 76% 29.88 in 10.0 mi WSW 6.9 mph - 0.01 in Rain Light Rain
11:53 PM 45.0 °F 38.5 °F 39.0 °F 80% 29.88 in 10.0 mi West 13.8 mph - 0.00 in   Overcast